DW6111 Weather Reports


time (UTC)temp
F
wind
direction
speed
knots
gust
knots
rain 1hr
in
rain 24hr
in
rain mn
in
humidity
%
barometer
mb
20260507183043 54 360 0.0 2.6 0.00 0.00 0.00 100 1015.2
20260507181538 55 131 0.0 2.6 0.00 0.00 0.00 100 1015.2
20260507180042 55 108 1.7 4.3 0.00 0.00 0.00 100 1015.0
20260507174539 55 120 0.9 3.5 0.00 0.00 0.00 100 1015.0
20260507173045 56 142 0.9 2.6 0.00 0.00 0.00 100 1015.0
20260507171546 56 155 0.0 2.6 0.00 0.00 0.00 100 1015.0
20260507170033 56 360 0.0 3.5 0.00 0.00 0.00 100 1015.1
20260507164541 56 86 0.0 5.2 0.00 0.00 0.00 100 1015.2
20260507163032 56 360 0.0 2.6 0.00 0.00 0.00 100 1015.2
20260507161540 56 115 0.0 2.6 0.00 0.00 0.00 100 1015.3
20260507160039 57 360 0.0 3.5 0.00 0.00 0.00 100 1015.3
20260507154534 57 99 0.0 2.6 0.00 0.00 0.00 100 1015.3
20260507153027 57 360 0.9 4.3 0.00 0.00 0.00 100 1015.4
20260507151537 57 360 1.7 4.3 0.00 0.00 0.00 100 1015.5
20260507150024 56 360 0.0 3.5 0.00 0.00 0.00 100 1015.6
20260507144522 56 360 0.0 3.5 0.00 0.00 0.00 100 1015.9
20260507143020 56 84 0.9 4.3 0.00 0.00 0.00 100 1016.1
20260507141520 56 360 0.9 5.2 0.00 0.00 0.00 100 1016.1
20260507140020 57 115 0.0 3.5 0.00 0.00 0.00 100 1016.2
20260507134528 57 50 0.9 4.3 0.00 0.00 0.00 100 1016.3
20260507133015 56 97 1.7 4.3 0.00 0.00 0.00 100 1016.4
20260507131518 55 82 0.0 5.2 0.00 0.00 0.00 100 1016.4
20260507130009 55 360 0.9 6.1 0.00 0.00 0.00 100 1016.5
20260507124507 54 360 1.7 4.3 0.00 0.00 0.00 100 1016.5
20260507123016 54 360 0.9 4.3 0.00 0.00 0.00 100 1016.6
20260507121502 52 360 0.9 3.5 0.00 0.00 0.00 100 1016.6
20260507120058 51 360 0.9 4.3 0.00 0.00 0.00 100 1016.7
20260507114559 50 134 0.9 3.5 0.00 0.00 0.00 100 1016.7
20260507113052 49 108 0.9 4.3 0.00 0.00 0.00 100 1016.9
20260507111551 49 360 0.0 2.6 0.00 0.00 0.00 100 1016.9
20260507104548 48 119 0.9 2.6 0.00 0.00 0.00 100 1017.1
20260507103053 48 110 0.0 2.6 0.00 0.00 0.00 100 1017.1
20260507101548 47 360 0.0 0.9 0.00 0.00 0.00 100 1017.1
20260507100043 47 79 0.0 1.7 0.00 0.00 0.00 100 1017.1
20260507094542 47 97 0.0 1.7 0.00 0.00 0.00 100 1017.1
20260507093042 47 360 0.0 2.6 0.00 0.00 0.00 100 1017.1
20260507091550 47 141 0.0 0.9 0.00 0.00 0.00 100 1017.0
20260507090042 46 360 0.0 1.7 0.00 0.00 0.00 100 1017.0
20260507084540 46 360 0.0 1.7 0.00 0.00 0.00 100 1017.0
20260507083038 45 124 0.0 2.6 0.00 0.00 0.00 100 1017.1
20260507081532 44 144 0.0 1.7 0.00 0.00 0.00 100 1017.0
20260507080030 44 164 0.0 1.7 0.00 0.00 0.00 100 1017.0
20260507074540 44 189 0.0 2.6 0.00 0.00 0.00 100 1017.0
20260507073027 43 129 0.0 1.7 0.00 0.00 0.00 100 1016.8
20260507071525 42 62 0.0 0.9 0.00 0.00 0.00 100 1016.8
20260507070023 42 360 0.0 1.7 0.00 0.00 0.00 100 1016.8
20260507064522 42 96 0.0 0.9 0.00 0.00 0.00 100 1016.7
20260507063022 41 76 0.0 0.9 0.00 0.00 0.00 100 1016.7
20260507061519 41 58 0.0 0.9 0.00 0.00 0.00 100 1016.7
20260507060016 40 360 0.0 0.9 0.00 0.00 0.00 100 1016.7
20260507054514 40 118 0.0 0.9 0.00 0.00 0.00 100 1016.5
20260507053012 39 360 0.0 0.9 0.00 0.00 0.00 100 1016.5
20260507051510 38 69 0.0 0.9 0.00 0.00 0.00 100 1016.5
20260507050009 38 287 0.0 0.9 0.00 0.00 0.00 100 1016.4
20260507044509 38 4 0.0 0.9 0.00 0.00 0.00 100 1016.5
20260507043008 38 360 0.0 0.9 0.00 0.00 0.00 100 1016.5
20260507041510 38 229 0.0 0.0 0.00 0.00 0.00 100 1016.4
20260507040006 38 229 0.0 0.0 0.00 0.00 0.00 100 1016.4
20260507034505 38 229 0.0 0.0 0.00 0.00 0.00 100 1016.5
20260507033004 38 229 0.0 0.0 0.00 0.00 0.00 100 1016.4
20260507031504 38 229 0.0 0.0 0.00 0.00 0.00 100 1016.5
20260507030002 38 229 0.0 0.0 0.00 0.00 0.00 100 1016.6
20260507024609 38 229 0.0 0.0 0.00 0.00 0.00 100 1016.7
20260507023059 38 229 0.0 0.0 0.00 0.00 0.00 100 1016.6
20260507021601 38 229 0.0 0.0 0.00 0.00 0.00 100 1016.6
20260507020058 38 229 0.0 0.0 0.00 0.00 0.00 100 1016.6
20260507014559 38 229 0.0 0.0 0.00 0.00 0.00 100 1016.5
20260507013056 37 229 0.0 0.0 0.00 0.00 0.00 100 1016.5
20260507011554 37 229 0.0 0.0 0.00 0.00 0.00 100 1016.6
20260507010109 37 229 0.0 0.0 0.00 0.00 0.00 100 1016.7
20260507004549 36 229 0.0 0.0 0.00 0.00 0.00 100 1016.8
20260507003049 36 229 0.0 0.0 0.00 0.00 0.00 100 1016.8
20260507001555 36 229 0.0 0.0 0.00 0.00 0.00 100 1016.9
20260507000048 35 229 0.0 0.0 0.00 0.00 0.00 100 1017.1
20260506234546 36 229 0.0 0.0 0.00 0.00 0.00 100 1017.0
20260506233057 36 229 0.0 0.0 0.00 0.00 0.00 100 1017.0
20260506231542 36 229 0.0 0.0 0.00 0.00 0.00 100 1017.1
20260506230045 36 229 0.0 0.0 0.00 0.00 0.00 100 1017.1
20260506224539 37 229 0.0 0.0 0.00 0.00 0.00 100 1017.2
20260506223043 37 229 0.0 0.0 0.00 0.00 0.00 100 1017.1
20260506221545 37 229 0.0 0.0 0.00 0.00 0.00 100 1017.0
20260506220046 37 229 0.0 0.0 0.00 0.00 0.00 100 1016.9
20260506214537 38 229 0.0 0.0 0.00 0.00 0.00 100 1016.8
20260506213036 38 229 0.0 0.0 0.00 0.00 0.00 100 1016.8
20260506211545 39 229 0.0 0.0 0.00 0.00 0.00 100 1016.8
20260506210036 39 229 0.0 0.0 0.00 0.00 0.00 100 1016.8
20260506204535 40 229 0.0 0.0 0.00 0.00 0.00 100 1016.7
20260506203034 41 229 0.0 0.0 0.00 0.00 0.00 100 1016.7
20260506201534 42 229 0.0 0.0 0.00 0.00 0.00 100 1016.6
20260506200034 43 229 0.0 0.0 0.00 0.00 0.00 100 1016.4
20260506194537 44 229 0.0 0.0 0.00 0.00 0.00 100 1016.3
20260506193034 45 229 0.0 0.0 0.00 0.00 0.00 100 1016.2
20260506191533 46 229 0.0 0.0 0.00 0.00 0.00 100 1016.1
20260506190030 47 222 0.0 0.0 0.00 0.00 0.00 100 1016.0
20260506184529 49 360 0.0 3.5 0.00 0.00 0.00 100 1015.9